DW7898 Weather Reports


time (UTC)temp
C
wind
direction
speed
KPH
gust
KPH
rain 1hr
cm
rain 24hr
cm
rain mn
cm
humidity
%
barometer
mb
20260507155352 17 127 9.7 20.9 0.00 0.00 0.00 60 1013.0
20260507154337 17 111 4.8 22.5 0.00 0.00 0.00 59 1013.1
20260507153345 18 81 8.0 20.9 0.00 0.00 0.00 58 1013.1
20260507152342 18 89 8.0 17.7 0.00 0.00 0.00 55 1013.2
20260507151350 18 114 3.2 17.7 0.00 0.00 0.00 56 1013.0
20260507150355 18 155 11.3 19.3 0.00 0.00 0.00 55 1013.2
20260507145352 18 106 3.2 14.5 0.00 0.00 0.00 54 1013.3
20260507144337 18 121 4.8 12.9 0.00 0.00 0.00 54 1013.1
20260507143339 18 130 3.2 17.7 0.00 0.00 0.00 54 1013.3
20260507142338 18 127 8.0 16.1 0.00 0.00 0.00 53 1013.3
20260507141357 18 118 8.0 17.7 0.00 0.00 0.00 53 1013.4
20260507140355 19 128 8.0 16.1 0.00 0.00 0.00 51 1013.3
20260507135348 18 134 12.9 24.1 0.00 0.00 0.00 51 1013.5
20260507134350 18 125 9.7 17.7 0.00 0.00 0.00 52 1013.8
20260507133339 18 112 8.0 19.3 0.00 0.00 0.00 51 1013.8
20260507132337 18 125 12.9 25.7 0.00 0.00 0.00 52 1014.0
20260507131337 18 83 14.5 25.7 0.00 0.00 0.00 53 1014.0
20260507130340 18 116 14.5 24.1 0.00 0.00 0.00 52 1014.0
20260507125354 18 241 4.8 22.5 0.00 0.00 0.00 53 1014.1
20260507124357 18 190 11.3 19.3 0.00 0.00 0.00 53 1014.2
20260507123340 18 76 6.4 24.1 0.00 0.00 0.00 55 1014.4
20260507122336 18 122 12.9 22.5 0.00 0.00 0.00 56 1014.4
20260507121340 18 130 14.5 24.1 0.00 0.00 0.00 55 1014.5
20260507120342 18 137 12.9 25.7 0.00 0.00 0.00 56 1014.4
20260507115342 18 156 9.7 25.7 0.00 0.00 0.00 57 1014.5
20260507114348 18 123 6.4 25.7 0.00 0.00 0.00 56 1014.4
20260507113358 19 180 6.4 17.7 0.00 0.00 0.00 56 1014.4
20260507112353 19 207 4.8 16.1 0.00 0.00 0.00 57 1014.4
20260507111354 18 121 6.4 19.3 0.00 0.00 0.00 58 1014.6
20260507110335 18 138 6.4 20.9 0.00 0.00 0.00 59 1014.7
20260507105355 18 122 8.0 17.7 0.00 0.00 0.00 58 1014.8
20260507104337 18 220 4.8 19.3 0.00 0.00 0.00 59 1014.9
20260507103339 18 199 9.7 19.3 0.00 0.00 0.00 58 1015.1
20260507102357 18 118 6.4 17.7 0.00 0.00 0.00 58 1015.1
20260507101358 18 142 4.8 19.3 0.00 0.00 0.00 59 1015.2
20260507100354 18 131 6.4 16.1 0.00 0.00 0.00 60 1015.2
20260507095353 17 164 3.2 14.5 0.00 0.00 0.00 61 1015.1
20260507094354 18 132 4.8 12.9 0.00 0.00 0.00 61 1015.3
20260507093340 18 114 0.0 14.5 0.00 0.00 0.00 61 1015.3
20260507092356 17 123 0.0 9.7 0.00 0.00 0.00 63 1015.3
20260507091341 17 111 6.4 12.9 0.00 0.00 0.00 62 1015.3
20260507090346 18 113 4.8 14.5 0.00 0.00 0.00 61 1015.1
20260507085342 18 137 3.2 8.0 0.00 0.00 0.00 62 1015.1
20260507084349 18 98 1.6 8.0 0.00 0.00 0.00 64 1015.2
20260507083357 17 0 0.0 6.4 0.00 0.00 0.00 66 1015.2
20260507082354 17 0 4.8 9.7 0.00 0.00 0.00 67 1015.2
20260507081351 16 327 3.2 8.0 0.00 0.00 0.00 69 1015.3
20260507080356 16 336 3.2 8.0 0.00 0.00 0.00 70 1015.4
20260507075337 15 336 1.6 6.4 0.00 0.00 0.00 71 1015.6
20260507074344 15 338 4.8 6.4 0.00 0.00 0.00 71 1015.5
20260507073335 15 354 3.2 6.4 0.00 0.00 0.00 72 1015.5
20260507072353 15 0 1.6 6.4 0.00 0.00 0.00 73 1015.5
20260507071337 15 2 4.8 8.0 0.00 0.00 0.00 73 1015.5
20260507070339 14 49 1.6 3.2 0.00 0.00 0.00 74 1015.4
20260507065356 14 49 3.2 4.8 0.00 0.00 0.00 74 1015.2
20260507064340 14 49 0.0 6.4 0.00 0.00 0.00 76 1015.3
20260507063342 13 50 3.2 8.0 0.00 0.00 0.00 77 1015.0
20260507062339 13 62 3.2 8.0 0.00 0.00 0.00 79 1015.0
20260507061340 13 68 0.0 8.0 0.00 0.00 0.00 81 1015.1
20260507060344 13 46 3.2 6.4 0.00 0.00 0.00 83 1014.9
20260507055346 13 40 0.0 4.8 0.00 0.00 0.00 84 1015.0
20260507054351 12 39 0.0 3.2 0.00 0.00 0.00 84 1014.8
20260507053339 12 40 0.0 3.2 0.00 0.00 0.00 85 1014.9
20260507052337 12 39 0.0 0.0 0.00 0.00 0.00 85 1014.7
20260507051343 12 39 0.0 0.0 0.00 0.00 0.00 85 1014.5
20260507050345 12 39 0.0 0.0 0.00 0.00 0.00 84 1014.5
20260507045340 12 39 0.0 0.0 0.00 0.00 0.00 84 1014.3
20260507044338 12 48 0.0 0.0 0.00 0.00 0.00 84 1014.4
20260507043341 12 48 0.0 0.0 0.00 0.00 0.00 83 1014.5
20260507042339 12 48 0.0 0.0 0.00 0.00 0.00 83 1014.3
20260507041343 12 48 0.0 0.0 0.00 0.00 0.00 83 1014.4
20260507040349 12 48 0.0 0.0 0.00 0.00 0.00 82 1014.3
20260507035347 12 48 0.0 0.0 0.00 0.00 0.00 83 1014.4
20260507034350 12 48 0.0 0.0 0.00 0.00 0.00 82 1014.3
20260507033357 12 48 0.0 0.0 0.00 0.00 0.00 81 1014.4
20260507032353 13 48 0.0 0.0 0.00 0.00 0.00 82 1014.4
20260507031337 13 48 0.0 0.0 0.00 0.00 0.00 82 1014.4
20260507030338 13 48 0.0 0.0 0.00 0.00 0.00 81 1014.4
20260507025344 13 48 0.0 0.0 0.00 0.00 0.00 81 1014.4
20260507024350 13 48 0.0 4.8 0.00 0.00 0.00 81 1014.4
20260507023355 13 47 1.6 8.0 0.00 0.00 0.00 81 1014.3
20260507022355 13 43 3.2 6.4 0.00 0.00 0.00 80 1014.3
20260507021341 13 40 3.2 8.0 0.00 0.00 0.00 80 1014.4
20260507020342 13 36 0.0 3.2 0.00 0.00 0.00 80 1014.4
20260507015340 13 36 1.6 6.4 0.00 0.00 0.00 80 1014.4
20260507014342 14 35 0.0 0.0 0.00 0.00 0.00 79 1014.6
20260507013343 14 35 0.0 0.0 0.00 0.00 0.00 79 1014.5
20260507012337 13 35 0.0 0.0 0.00 0.00 0.00 78 1014.5
20260507011336 13 35 1.6 4.8 0.00 0.00 0.00 76 1014.6
20260507010341 15 34 0.0 6.4 0.00 0.00 0.00 77 1014.5
20260507005340 15 29 3.2 8.0 0.00 0.00 0.00 77 1014.5
20260507004343 15 29 3.2 6.4 0.00 0.00 0.00 77 1014.6
20260507003351 15 27 0.0 12.9 0.00 0.00 0.00 76 1014.7
20260507002350 15 11 8.0 11.3 0.00 0.00 0.00 76 1014.7
20260507001352 15 54 0.0 4.8 0.00 0.00 0.00 76 1014.8
20260507000357 15 54 0.0 6.4 0.00 0.00 0.00 76 1014.9
20260506235358 15 48 1.6 6.4 0.00 0.00 0.00 76 1014.8
20260506234342 15 46 4.8 9.7 0.00 0.00 0.00 76 1014.8
20260506233350 15 50 6.4 11.3 0.00 0.00 0.00 76 1014.8
20260506232347 15 36 6.4 12.9 0.00 0.00 0.00 76 1014.8
20260506231354 15 55 4.8 8.0 0.00 0.00 0.00 76 1014.8
20260506230336 15 56 3.2 6.4 0.00 0.00 0.00 75 1014.8
20260506225338 15 55 3.2 9.7 0.00 0.00 0.00 75 1014.8
20260506224340 15 39 6.4 11.3 0.00 0.00 0.00 75 1014.8
20260506223342 15 32 4.8 8.0 0.00 0.00 0.00 75 1014.8
20260506222337 15 44 4.8 9.7 0.00 0.00 0.00 74 1014.8
20260506221335 15 34 3.2 6.4 0.00 0.00 0.00 72 1014.8
20260506220340 16 25 3.2 4.8 0.00 0.00 0.00 72 1014.7
20260506215339 16 25 1.6 4.8 0.00 0.00 0.00 71 1014.6
20260506214340 16 26 0.0 3.2 0.00 0.00 0.00 71 1014.7
20260506213343 16 26 0.0 3.2 0.00 0.00 0.00 70 1014.6
20260506212341 16 26 1.6 6.4 0.00 0.00 0.00 70 1014.7
20260506211351 16 19 1.6 3.2 0.00 0.00 0.00 69 1014.5
20260506210355 16 19 3.2 6.4 0.00 0.00 0.00 68 1014.6
20260506205338 16 164 3.2 4.8 0.00 0.00 0.00 68 1014.6
20260506204341 16 164 0.0 1.6 0.00 0.00 0.00 68 1014.4
20260506203348 16 164 0.0 3.2 0.00 0.00 0.00 68 1014.2
20260506202348 16 178 1.6 4.8 0.00 0.00 0.00 68 1014.1
20260506201351 16 203 3.2 6.4 0.00 0.00 0.00 68 1014.1
20260506200353 16 225 1.6 6.4 0.00 0.00 0.00 68 1013.9
20260506195350 16 227 1.6 4.8 0.00 0.00 0.00 67 1013.7
20260506194354 17 223 1.6 6.4 0.00 0.00 0.00 67 1013.6
20260506193341 17 223 1.6 4.8 0.00 0.00 0.00 66 1013.4
20260506192340 17 223 3.2 6.4 0.00 0.00 0.00 67 1013.2
20260506191344 17 227 1.6 6.4 0.00 0.00 0.00 67 1013.1
20260506190354 17 228 1.6 8.0 0.00 0.00 0.00 67 1013.0
20260506185337 17 196 3.2 9.7 0.00 0.00 0.00 66 1012.9
20260506184337 17 193 3.2 11.3 0.00 0.00 0.00 65 1012.8
20260506183340 17 123 6.4 14.5 0.00 0.00 0.00 62 1012.5
20260506182336 18 132 1.6 11.3 0.00 0.00 0.00 61 1012.5
20260506181342 18 105 3.2 16.1 0.00 0.00 0.00 62 1012.4
20260506180347 18 122 8.0 16.1 0.00 0.00 0.00 61 1012.4
20260506175348 18 222 4.8 16.1 0.00 0.00 0.00 61 1012.1
20260506174340 18 179 1.6 9.7 0.00 0.00 0.00 60 1012.1
20260506173357 18 103 3.2 14.5 0.00 0.00 0.00 58 1012.1
20260506172357 18 177 8.0 16.1 0.00 0.00 0.00 56 1012.1
20260506171358 18 120 6.4 16.1 0.00 0.00 0.00 54 1012.0
20260506170336 18 120 9.7 16.1 0.00 0.00 0.00 53 1012.0
20260506165338 18 138 12.9 16.1 0.00 0.00 0.00 51 1011.8
20260506164343 18 112 8.0 14.5 0.00 0.00 0.00 48 1011.8
20260506163345 18 124 9.7 19.3 0.00 0.00 0.00 45 1011.9
20260506162339 18 82 8.0 22.5 0.00 0.00 0.00 45 1011.7
20260506161341 18 150 8.0 20.9 0.00 0.00 0.00 43 1011.5
20260506160350 18 189 6.4 20.9 0.00 0.00 0.00 44 1011.4